Погода Дзерджинское

Погода Дзерджинское : погода сейчас, прогноз погоды и архив. Всё, что Вы хотите узнать о погоде Дзерджинское!

Хотите узнать прогноз погоды Дзерджинское? Тогда Вам сюда: Погода Дзерджинское

Поиск расширенной информации на нашем сайте:

Другие новости

Новости СМИ2

Главная страница сайта

Новости сайта

03.07.2017

Напоминаем, что на нашем специализированном сайте Метеоцентр.Азия вы можете получить высокодетализированные автоматические прогнозы погоды по пунктам России, СНГ и мира в авиационном формате (включающие направление и скорость ветра, видимость, явления погоды, количество и форму облачности, нижнюю и верхнюю границу облачности).

Рекомендуем: Ремонт husqvarna проблема с хускварной husqvarna.

Погода Дзерджинское - сегодня

Время (UTC), дата Ветер
(°,м/с) 
Видим.   Явления Облачность Т
(°С)
Тd
(°С)
f(%) Тe
(°С)
Pmin
(гПа)
dP
(гПа)
Po
(мм)
O2
(г/м3)
Тmin Tmax R s Состояние
почвы
21 17.02.18 100 (В) н/о    н/о 
-24.7 -26.8 83 -25  1062.5  0.5  774  345           
00 18.02.18 тихо ()   20000 м    10/0 средняя 
[As op]
-23.7 -25.8 83 -24  1037.7  -0.4  758  336  -24.8    0.3  46  равномерный
сухой снег
100% 
03 18.02.18 тихо ()   20000 м  в посл. час снег  10/0 верхняя 
[Cs]
-20.8 -23 82 -21  1037.3  758  333           
06 18.02.18 130 (ЮВ) 20000 м  {снег}  10/0 верхняя 
[Cs]
-13 -17.8 67 -13  1035.5  -1  758  322           
09 18.02.18 260 (З) 20000 м    10/0 средняя 
[As op]
-11.5 -16.3 68 -13  1034.4  -1  757  320           
12 18.02.18 270 (З) 20000 м    10/0 средняя 
[As op]
-11.9 -16.2 70 -12  1034.1  -0.3  757  320    -10.4  0.4     
15 18.02.18 270 (З) 20000 м    8/0 верхняя 
[Ci fib]
-12.1 -16.1 72 -14  1033.7  -0.4  756  320           
18 18.02.18 270 (З) 20000 м    ясно 
-14.1 -17.3 77 -14  1033.6  -0.3  756  323           
21 18.02.18 тихо ()   20000 м    10/0 средняя 
[As op]
-16.9 -19 84 -17  1033.2  -0.7  756  326           
00 19.02.18 260 (З) 20000 м  {снег}  10/0 средняя 
[As op]
-15.3 -18.3 78 -15  1032.9  -0.7  756  324  -17.8    0.0  46  равномерный
сухой снег
100% 
03 19.02.18 250 (З) 10 км  слаб. снег  10/0 средняя 
[As op]
-13 -14.9 86 -13  1032.8  0.1  756  321           
06 19.02.18 270 (З) 10 км  слаб. снег  10/0 средняя 
[As op]
-11.6 -14.9 76 -14  1031.7  -0.9  755  319           
09 19.02.18 230 (ЮЗ) 10 км  слаб. снег  10/0 средняя 
[As op]
-10.1 -13 79 -10  1030.4  -1.1  754  317           
12 19.02.18 240 (ЮЗ) 10 км  слаб. снег  10/0 средняя 
[As op]
-10.1 -12.9 80 -10  1030  -0.4  754  317    -9.5     
15 19.02.18 280 (З) 10 км  слаб. снег  10/0 средняя 
[As op]
-10.7 -12.9 84 -13  1029.6  -0.5  754  317           
18 19.02.18 280 (З) 20000 м  {снег}  10/0 средняя 
[As op]
-11.6 -15.7 72 -15  1029.7  754  318           
21 19.02.18 280 (З) 10 км  слаб. снег  10/0 средняя 
[As op]
-12.5 -14.6 84 -12  1029.8  754  319           
00 20.02.18 тихо ()   10 км  слаб. снег  10/0 средняя 
[As op]
-13.1 -14.5 89 -13  1029.6  -0.2  753  320  -13.2    0.9  47  равномерный
сухой снег
100% 
03 20.02.18 290 (З) 10 км  слаб. снег  10/0 средняя 
[As op]
-10.9 -12.4 89 -13  1029.1  -0.3  753  317           
06 20.02.18 290 (З) 10 км  слаб. снег  10/0 средняя 
[As op]
-10.1 -13.1 79 -13  1028.6  -0.4  753  316           
09 20.02.18 290 (З) 10 км  {снег}  10/0 средняя 
[As op]
-9.4 -13.6 71 -11  1028.6  0.1  753  315           
12 20.02.18 тихо ()   20000 м  {снег}  10/0 верхняя 
[Cs]
-11.9 -13.9 85 -12  1028.8  -0.1  753  318    -9.4     
15 20.02.18 тихо ()   10 км  слаб. снег  10/0 средняя 
[As op]
-14.6 -15.1 96 -15  1028.8  -0.2  753  322           
18 20.02.18 тихо ()   10 км  слаб. снег  10/0 средняя 
[As op]
-15.1 -15.8 94 -15  1027.9  -1  752  322           
21 20.02.18 тихо ()   10 км  слаб. снег  10/0 средняя 
[As op]
-14.2 -14.9 94 -14  1026.9  -0.8  751  321           
Время (UTC), дата Ветер
(°,м/с) 
Видим.   Явления Облачность Т
(°С)
Тd
(°С)
f(%) Тe
(°С)
Pmin
(гПа)
dP
(гПа)
Po
(мм)
O2
(г/м3)
Тmin Tmax R s Состояние
почвы

Для получения пояснительной информации подведите курсор к названию столбца.

ПОГОДА Дзерджинское - архив

Всё, что Вы хотите узнать о погоде Дзерджинское - удобно и подробно!

Выберите нужную дату (начиная с 1 января 2015* года) и нажмите кнопку "Найти".
Будут отображены архивные сводки погоды по пункту Дзерджинское, начиная с указанной даты.


Отображать данные в формате CSV (для использования в таблицах Excel)


Внимание! Наш архив погоды предназначен исключительно для личного некоммерческого использования в познавательных целях. Если Вам необходимы официальные справки о состоянии погоды (для производственных, юридических, коммерческих и т.п. целей), обращайтесь в органы Росгидромета.

*Примечание: данная дата относится к архиву по метеостанциям СССР (Россия, СНГ, Балтия).
Архив по метеостанциям Зарубежной Европы и Азии (кроме Китая) хранится 10 дней, по другим регионам земного шара (Китай, Африка, Америка, Австралия, Океания) - 1 день.

Дзерджинское - район местоположения метеостанции


Название, широта, долгота, высота метеостанции:
Дзерджинское 56.9°ш. 95.2°д. 188 м над ур. моря [Российская Федерация]

Дополнительная информация

В oтличие oт бoльшинства пoгoдных сайтoв мы публикуем пoдрoбную метеoинфoрмацию в детальнoм прoфессиoнальнoм фoрмате.

Характеристики температуры и влажнoсти вoздуха измеряются на высoте 2 м в тени вдали oт зданий и деревьев.
Скoрoсть ветра измеряется на высoте 10 м (на урoвне рoста челoвека скoрoсть ветра ниже в 1.5-2 раза). Если метеoстанция нахoдится в гoрoде или в лесу, тo скoрoсть ветра занижена на 2-4 м/с пo сравнению с oткрытым местoм. Скoрoсть ветра над акватoриями крупных рек и oзёр, а также на вершинах хoлмoв на 2-5 м/с выше, чем в oбычных услoвиях.
Атмoсфернoе давление в разных тoчках местнoсти мoжет значительнo oтличаться oт давления на метеoстанции, в зависимoсти oт услoвий рельефа (при пoдъёме на 10 м давление пoнижается примернo на 1 мм рт.ст.).